Tracking 28052 objects as of 22-Sep-2023
HD Live streaming from Space Station
objects crossing your sky now

STARLINK-5109

Track STARLINK-5109 now!
10-day predictions
STARLINK-5109 is classified as:


NORAD ID: 54002
Int'l Code: 2022-125AQ
Perigee: 545.7 km
Apogee: 548.0 km
Inclination: 53.2 °
Period: 95.4 minutes
Semi major axis: 6917 km
RCS: Unknown
Launch date: October 5, 2022
Source: United States (US)
Launch site: AIR FORCE WESTERN TEST RANGE (AFWTR)
Your satellite tracking list
Your tracking list is empty




NASA's NSSDC Master Catalog

Two Line Element Set (TLE):
1 54002U 22125AQ  23265.06178674  .00005746  00000-0  37880-3 0  9991
2 54002  53.2156 282.4464 0001662  81.0120 279.1061 15.08843889 53842
Source of the keplerian elements: AFSPC